Back to catalog

CZ-6A DEB

AlivePO
NORAD 61308·DEBRIS·🇨🇳 China

Launched Aug 6, 2024 from Taiyuan Satellite Launch Center

Loading…

Next Passes (next 24 hours)

TLE

FreshSource: Space-Track

Epoch: Sep 14, 2026, 09:44 UTC

1 61308U 24140TV  26257.40557902  .00001876  00000-0  32376-3 0  9999
2 61308  88.8954 248.7775 0125611 292.5669  66.2293 14.62973082109074

Track CZ-6A DEB in real time with AllMySat

Download on the App Store